Tracking 21992 objects as of 29-Nov-2020
HD Live streaming from Space Station
objects crossing your sky now

SATCOM 1

Track SATCOM 1 now!
SATCOM 1 is classified as:


NORAD ID: 8476
Int'l Code: 1975-117A
Perigee: 35,917.5 km
Apogee: 36,044.8 km
Inclination: 12.2 °
Period: 1,445.7 minutes
Semi major axis: 42352 km
RCS: 2.5118 m2 (large)
Launch date: December 13, 1975
Source: United States (US)
Launch site: AIR FORCE EASTERN TEST RANGE (AFETR)
aabbcc
Your satellite tracking list
Your tracking list is empty




NASA's NSSDC Master Catalog

Two Line Element Set (TLE):
1  8476U 75117A   20334.22397545 -.00000118 +00000-0 +00000-0 0  9996
2  8476 012.1682 322.3615 0015029 221.4963 325.3658 00.99607036026182
Source of the keplerian elements: AFSPC